When you browse on this site, cookies collect data to enhance your experience and personalize the content and advertising you see.
Visit our Privacy Policy to learn more. By continuing to use the site, you agree to this use of cookies and data.
  • In Switzerland
  • List of Countries
  • For 7 days
  • Water Temperature
  • Weather Map
  • Weather Widgets
  • user-avatar
    Login

    Hourly Weather Gampaha

    Today, 24 February, Monday

    Time Temperature Precipitation Wind Pressure Humidity
    00:00 +25°C° 0 mm 2 mps 756 mmHg 87%
    01:00 +25°C° 0 mm 3 mps 755 mmHg 89%
    02:00 +24°C° 0 mm 3 mps 755 mmHg 91%
    03:00 +24°C° 0 mm 3 mps 755 mmHg 91%
    04:00 +24°C° 0 mm 3 mps 755 mmHg 92%
    05:00 +24°C° 0 mm 3 mps 755 mmHg 90%
    06:00 +25°C° 0 mm 3 mps 755 mmHg 83%
    07:00 +27°C° 0 mm 3 mps 756 mmHg 75%
    08:00 +29°C° 0 mm 3 mps 756 mmHg 68%
    09:00 +31°C° 0 mm 2 mps 756 mmHg 59%
    10:00 +35°C° 0 mm 2 mps 756 mmHg 49%
    11:00 +36°C° 0 mm 1 mps 756 mmHg 40%
    12:00 +37°C° 0 mm 2 mps 755 mmHg 41%
    13:00 +37°C° 0 mm 3 mps 754 mmHg 41%
    14:00 +37°C° 0 mm 4 mps 753 mmHg 42%
    15:00 +35°C° 0 mm 4 mps 753 mmHg 50%
    16:00 +33°C° 0 mm 4 mps 753 mmHg 58%
    17:00 +32°C° 0 mm 4 mps 754 mmHg 65%
    18:00 +29°C° 0 mm 3 mps 754 mmHg 71%
    19:00 +28°C° 0 mm 3 mps 755 mmHg 77%
    20:00 +27°C° 0 mm 3 mps 755 mmHg 82%
    21:00 +27°C° 0 mm 2 mps 755 mmHg 83%
    22:00 +26°C° 0 mm 2 mps 755 mmHg 85%
    23:00 +26°C° 0 mm 2 mps 755 mmHg 86%

    Tomorrow, 25 February, Tuesday

    Time Temperature Precipitation Wind Pressure Humidity
    00:00 +25°C° 0 mm 2 mps 755 mmHg 87%
    01:00 +25°C° 0 mm 2 mps 754 mmHg 89%
    02:00 +24°C° 0 mm 1 mps 754 mmHg 91%
    03:00 +24°C° 0 mm 1 mps 754 mmHg 91%
    04:00 +24°C° 0 mm 1 mps 754 mmHg 92%
    05:00 +24°C° 0 mm 1 mps 754 mmHg 92%
    06:00 +26°C° 0 mm 1 mps 755 mmHg 83%
    07:00 +28°C° 0 mm 1 mps 755 mmHg 74%
    08:00 +30°C° 0 mm 1 mps 756 mmHg 65%
    09:00 +32°C° 0 mm 1 mps 756 mmHg 56%
    10:00 +35°C° 0 mm 1 mps 755 mmHg 48%
    11:00 +39°C° 0 mm 1 mps 755 mmHg 39%
    12:00 +38°C° 0 mm 2 mps 754 mmHg 40%
    13:00 +38°C° 0 mm 3 mps 753 mmHg 42%
    14:00 +37°C° 0 mm 4 mps 753 mmHg 44%
    15:00 +35°C° 0 mm 4 mps 752 mmHg 53%
    16:00 +33°C° 0 mm 3 mps 752 mmHg 62%
    17:00 +31°C° 0 mm 3 mps 752 mmHg 71%
    18:00 +29°C° 0.1 mm 3 mps 753 mmHg 77%
    19:00 +28°C° 0.1 mm 2 mps 754 mmHg 83%
    20:00 +27°C° 0.1 mm 2 mps 754 mmHg 90%
    21:00 +27°C° 0 mm 2 mps 754 mmHg 90%
    22:00 +27°C° 0 mm 2 mps 754 mmHg 91%
    23:00 +26°C° 0 mm 2 mps 755 mmHg 91%

    Day after tomorrow, 26 February, Wednesday

    Time Temperature Precipitation Wind Pressure Humidity
    00:00 +26°C° 0 mm 1 mps 754 mmHg 92%
    01:00 +25°C° 0 mm 1 mps 754 mmHg 93%
    02:00 +25°C° 0 mm 1 mps 754 mmHg 93%
    03:00 +25°C° 0 mm 1 mps 754 mmHg 94%
    04:00 +25°C° 0 mm 1 mps 754 mmHg 94%
    05:00 +24°C° 0 mm 2 mps 754 mmHg 94%
    06:00 +26°C° 0 mm 1 mps 754 mmHg 86%
    07:00 +28°C° 0 mm 1 mps 755 mmHg 78%
    08:00 +30°C° 0 mm 1 mps 756 mmHg 69%
    09:00 +32°C° 0 mm 1 mps 756 mmHg 60%
    10:00 +35°C° 0 mm 1 mps 756 mmHg 50%
    11:00 +39°C° 0 mm 1 mps 755 mmHg 41%
    12:00 +38°C° 0 mm 2 mps 755 mmHg 42%
    13:00 +38°C° 0 mm 3 mps 754 mmHg 44%
    14:00 +37°C° 0 mm 4 mps 753 mmHg 45%
    15:00 +35°C° 0 mm 3 mps 753 mmHg 54%
    16:00 +33°C° 0 mm 3 mps 753 mmHg 62%
    17:00 +30°C° 0 mm 3 mps 753 mmHg 71%
    18:00 +29°C° 0.2 mm 2 mps 754 mmHg 77%
    19:00 +28°C° 0.2 mm 2 mps 754 mmHg 83%
    20:00 +27°C° 0.2 mm 1 mps 755 mmHg 89%
    21:00 +27°C° 0 mm 1 mps 755 mmHg 90%
    22:00 +27°C° 0 mm 1 mps 755 mmHg 91%
    23:00 +26°C° 0 mm 1 mps 755 mmHg 92%

    27 February, Thursday

    Time Temperature Precipitation Wind Pressure Humidity
    00:00 +26°C° 0 mm 1 mps 755 mmHg 93%
    01:00 +26°C° 0 mm 1 mps 754 mmHg 94%
    02:00 +25°C° 0 mm 1 mps 754 mmHg 95%
    03:00 +25°C° 0 mm 1 mps 754 mmHg 96%
    04:00 +25°C° 0 mm 1 mps 754 mmHg 96%
    05:00 +24°C° 0 mm 1 mps 754 mmHg 97%
    06:00 +26°C° 0 mm 1 mps 755 mmHg 88%
    07:00 +28°C° 0 mm 1 mps 756 mmHg 80%
    08:00 +29°C° 0 mm 1 mps 756 mmHg 72%
    09:00 +32°C° 0 mm 1 mps 756 mmHg 59%
    10:00 +35°C° 0 mm 1 mps 756 mmHg 46%
    11:00 +39°C° 0 mm 1 mps 756 mmHg 34%
    12:00 +39°C° 0 mm 2 mps 755 mmHg 35%
    13:00 +38°C° 0 mm 3 mps 754 mmHg 36%
    14:00 +38°C° 0 mm 4 mps 753 mmHg 37%
    15:00 +36°C° 0 mm 4 mps 753 mmHg 45%
    16:00 +34°C° 0 mm 3 mps 753 mmHg 54%
    17:00 +33°C° 0 mm 3 mps 753 mmHg 63%
    18:00 +30°C° 0 mm 3 mps 754 mmHg 69%
    19:00 +29°C° 0 mm 2 mps 754 mmHg 76%
    20:00 +27°C° 0 mm 2 mps 755 mmHg 82%
    21:00 +27°C° 0 mm 2 mps 755 mmHg 84%
    22:00 +26°C° 0 mm 2 mps 755 mmHg 87%
    23:00 +26°C° 0 mm 1 mps 755 mmHg 89%

    28 February, Friday

    Time Temperature Precipitation Wind Pressure Humidity
    00:00 +25°C° 0 mm 1 mps 755 mmHg 90%
    01:00 +25°C° 0 mm 1 mps 754 mmHg 91%
    02:00 +25°C° 0 mm 1 mps 754 mmHg 92%
    03:00 +24°C° 0 mm 1 mps 754 mmHg 92%
    04:00 +24°C° 0 mm 2 mps 754 mmHg 92%
    05:00 +23°C° 0 mm 2 mps 754 mmHg 91%
    06:00 +25°C° 0 mm 2 mps 754 mmHg 81%
    07:00 +27°C° 0 mm 2 mps 755 mmHg 71%
    08:00 +29°C° 0 mm 2 mps 756 mmHg 60%
    09:00 +32°C° 0 mm 1 mps 755 mmHg 51%
    10:00 +35°C° 0 mm 1 mps 755 mmHg 42%
    11:00 +39°C° 0 mm 1 mps 755 mmHg 33%
    12:00 +39°C° 0 mm 2 mps 754 mmHg 34%
    13:00 +38°C° 0 mm 3 mps 753 mmHg 34%
    14:00 +38°C° 0 mm 4 mps 752 mmHg 35%
    15:00 +36°C° 0 mm 3 mps 752 mmHg 44%
    16:00 +33°C° 0 mm 3 mps 752 mmHg 54%
    17:00 +30°C° 0 mm 3 mps 752 mmHg 63%
    18:00 +29°C° 0 mm 2 mps 753 mmHg 69%
    19:00 +28°C° 0 mm 2 mps 754 mmHg 75%
    20:00 +27°C° 0 mm 1 mps 755 mmHg 82%
    21:00 +26°C° 0 mm 1 mps 755 mmHg 83%
    22:00 +26°C° 0 mm 1 mps 755 mmHg 85%
    23:00 +26°C° 0 mm 1 mps 755 mmHg 86%

    29 February, Saturday

    Time Temperature Precipitation Wind Pressure Humidity
    00:00 +25°C° 0 mm 1 mps 755 mmHg 88%
    01:00 +25°C° 0 mm 1 mps 754 mmHg 89%
    02:00 +25°C° 0 mm 1 mps 754 mmHg 90%
    03:00 +24°C° 0 mm 1 mps 754 mmHg 91%
    04:00 +24°C° 0 mm 1 mps 754 mmHg 92%
    05:00 +24°C° 0 mm 1 mps 754 mmHg 93%
    06:00 +26°C° 0 mm 1 mps 754 mmHg 84%
    07:00 +28°C° 0 mm 1 mps 755 mmHg 75%
    08:00 +30°C° 0 mm 1 mps 756 mmHg 66%
    09:00 +32°C° 0 mm 1 mps 755 mmHg 56%
    10:00 +34°C° 0 mm 1 mps 755 mmHg 46%
    11:00 +37°C° 0 mm 2 mps 755 mmHg 36%
    12:00 +37°C° 0 mm 3 mps 754 mmHg 39%
    13:00 +36°C° 0 mm 3 mps 754 mmHg 43%
    14:00 +36°C° 0 mm 4 mps 753 mmHg 46%
    15:00 +34°C° 0 mm 4 mps 753 mmHg 53%
    16:00 +33°C° 0 mm 3 mps 753 mmHg 59%
    17:00 +30°C° 0 mm 3 mps 753 mmHg 65%
    18:00 +29°C° 0 mm 2 mps 753 mmHg 71%
    19:00 +27°C° 0 mm 2 mps 754 mmHg 77%
    20:00 +26°C° 0 mm 1 mps 755 mmHg 84%
    21:00 +25°C° 0 mm 1 mps 755 mmHg 84%
    22:00 +25°C° 0 mm 1 mps 755 mmHg 85%
    23:00 +25°C° 0 mm 1 mps 755 mmHg 86%
    Show more